TimeEDT,TemperatureF,Dew PointF,Humidity,Sea Level PressureIn,VisibilityMPH,Wind Direction,Wind SpeedMPH,Gust SpeedMPH,PrecipitationIn,Events,Conditions,WindDirDegrees,DateUTC
12:54 AM,73.0,68.0,84,30.04,6.0,South,3.5,-,N/A,,Haze,190,2013-07-13 04:54:00
1:54 AM,72.0,68.0,87,30.04,9.0,Calm,Calm,-,N/A,,Partly Cloudy,0,2013-07-13 05:54:00
2:54 AM,71.1,66.9,87,30.04,7.0,North,-9999.0,-,N/A,,Partly Cloudy,0,2013-07-13 06:54:00
3:05 AM,71.1,66.9,87,30.05,3.0,SSE,5.8,-,N/A,,Scattered Clouds,160,2013-07-13 07:05:00
3:08 AM,71.1,66.9,87,30.05,2.0,SSE,5.8,-,N/A,,Mostly Cloudy,160,2013-07-13 07:08:00
3:13 AM,71.1,66.9,87,30.05,1.0,SSE,5.8,-,N/A,,Mist,160,2013-07-13 07:13:00
3:16 AM,71.1,66.9,87,30.05,0.5,SSE,6.9,-,N/A,Fog,Fog,160,2013-07-13 07:16:00
3:54 AM,71.1,68.0,90,30.06,0.2,Calm,Calm,-,N/A,Fog,Fog,0,2013-07-13 07:54:00
4:54 AM,71.1,68.0,90,30.07,0.8,Calm,Calm,-,N/A,,Overcast,0,2013-07-13 08:54:00
5:01 AM,71.1,66.9,87,30.08,1.2,Calm,Calm,-,N/A,,Overcast,0,2013-07-13 09:01:00
5:06 AM,71.1,66.9,87,30.08,2.5,Calm,Calm,-,N/A,,Mostly Cloudy,0,2013-07-13 09:06:00
5:14 AM,71.1,66.9,87,30.08,3.0,Calm,Calm,-,N/A,,Scattered Clouds,0,2013-07-13 09:14:00
5:54 AM,71.1,66.9,87,30.09,7.0,Calm,Calm,-,N/A,,Clear,0,2013-07-13 09:54:00
6:54 AM,72.0,68.0,87,30.10,9.0,Calm,Calm,-,N/A,,Mostly Cloudy,0,2013-07-13 10:54:00
7:46 AM,75.0,70.0,84,30.14,10.0,Calm,Calm,-,N/A,,Overcast,0,2013-07-13 11:46:00
7:54 AM,75.0,70.0,84,30.13,10.0,Calm,Calm,-,N/A,,Overcast,0,2013-07-13 11:54:00
8:09 AM,75.9,70.0,82,30.14,10.0,ESE,3.5,-,N/A,,Overcast,110,2013-07-13 12:09:00
8:54 AM,78.1,72.0,81,30.14,8.0,ESE,5.8,-,N/A,,Overcast,110,2013-07-13 12:54:00
9:54 AM,80.1,73.9,81,30.17,10.0,SSE,9.2,-,N/A,,Overcast,160,2013-07-13 13:54:00
10:11 AM,81.0,73.9,79,30.18,10.0,SSE,8.1,-,N/A,,Overcast,150,2013-07-13 14:11:00
10:19 AM,81.0,73.9,79,30.18,10.0,SSE,5.8,-,N/A,,Overcast,160,2013-07-13 14:19:00
10:54 AM,82.9,72.0,69,30.18,10.0,SSW,9.2,-,N/A,,Mostly Cloudy,200,2013-07-13 14:54:00
11:54 AM,75.0,70.0,84,30.19,10.0,SSW,6.9,-,0.01,Rain,Light Rain,200,2013-07-13 15:54:00
12:02 PM,75.9,70.0,82,30.19,10.0,SW,5.8,-,0.00,,Partly Cloudy,220,2013-07-13 16:02:00
12:54 PM,82.9,70.0,65,30.19,10.0,SSW,11.5,-,0.00,,Clear,210,2013-07-13 16:54:00
1:54 PM,82.9,71.1,67,30.20,10.0,SSW,13.8,-,N/A,,Clear,200,2013-07-13 17:54:00
2:54 PM,82.9,72.0,69,30.20,10.0,SSW,13.8,-,N/A,,Clear,200,2013-07-13 18:54:00
3:54 PM,84.0,72.0,67,30.20,10.0,SSW,13.8,-,N/A,,Clear,210,2013-07-13 19:54:00
4:54 PM,84.9,72.0,65,30.21,10.0,South,16.1,-,N/A,,Clear,190,2013-07-13 20:54:00
5:54 PM,84.0,72.0,67,30.22,10.0,SSW,13.8,-,N/A,,Clear,200,2013-07-13 21:54:00
6:54 PM,82.0,73.0,74,30.22,10.0,South,11.5,-,N/A,,Clear,180,2013-07-13 22:54:00
7:54 PM,80.1,73.9,81,30.24,10.0,SSE,8.1,-,N/A,,Clear,160,2013-07-13 23:54:00
8:54 PM,78.1,73.0,84,30.24,10.0,SSE,6.9,-,N/A,,Clear,160,2013-07-14 00:54:00
9:54 PM,78.1,73.9,87,30.27,10.0,SSE,9.2,-,N/A,,Clear,150,2013-07-14 01:54:00
10:54 PM,77.0,73.0,88,30.28,8.0,South,4.6,-,N/A,,Clear,170,2013-07-14 02:54:00
11:54 PM,77.0,73.0,88,30.30,9.0,SSE,3.5,-,N/A,,Clear,160,2013-07-14 03:54:00